Regional Weather Roundup
Issued by NWS

Home | Current Version | Previous Version | Graphics & Text | Print | Product List | Glossary On
Versions: 1 2 3 4 5 6 7 8 9 10 11 12 13 14 15 16 17 18 19 20 21 22 23 24 25 26 27
000
ASUS45 KCYS 201610
RWRWY

WYOMING REGIONAL WEATHER ROUNDUP
NATIONAL WEATHER SERVICE CHEYENNE WY
1000 AM MDT SUN MAY 20 2018

NOTE:  "FAIR" INDICATES FEW OR NO CLOUDS BELOW 12,000 FEET
WITH NO SIGNIFICANT WEATHER AND/OR OBSTRUCTIONS TO VISIBILITY.

WYZ001-201700-
YELLOWSTONE NATIONAL PARK

CITY           SKY/WX    TMP DP  RH WIND       PRES   REMARKS
LK YELLOWSTONE   N/A     45  33  63 VRB3      30.20F
W YELLOWSTONE  NOT AVBL

$$
WYZ002>013-054>058-071-098>099-201700-
NORTHERN WYOMING

CITY           SKY/WX    TMP DP  RH WIND       PRES   REMARKS
JACKSON        FAIR      53  38  56 E3        30.14F
CODY           FAIR      57  40  52 S3        30.12S
GREYBULL       FAIR      59  43  55 S13       30.11S
WORLAND        FAIR      59  42  53 S9G18     30.12S
SHERIDAN       FAIR      60  45  57 SE16      30.11S
BUFFALO        FAIR      54  42  64 SE22G29   30.16R
GILLETTE       FAIR      53  38  56 SE22G30   30.19F
NEWCASTLE      FAIR      50  34  53 SE17      30.26S

$$
WYZ014>020-022>026-101>103-201700-
CENTRAL WYOMING

CITY           SKY/WX    TMP DP  RH WIND       PRES   REMARKS
BIG PINEY      FAIR      50  37  61 S3        30.19R
PINEDALE       FAIR      50  37  62 NW5       30.19S
DUBOIS         FAIR      50  36  57 E6        30.16S
LANDER         FAIR      51  43  74 SE7       30.16S
RIVERTON       CLOUDY    50  42  74 CALM      30.18R
CASPER         PTSUNNY   47  42  83 N5        30.20F
DOUGLAS        PTSUNNY   48  41  76 SE22G32   30.22F

$$
WYZ021-027>030-104>119-201700-
SOUTHERN WYOMING

CITY           SKY/WX    TMP DP  RH WIND       PRES   REMARKS
EVANSTON       FAIR      50  41  71 E12       30.15S
KEMMERER       FAIR      50  37  62 NE12      30.18S
FORT BRIDGER   FAIR      50  40  68 E8        30.20S
ROCK SPRINGS   FAIR      47  38  71 E10G20    30.19S
DIXON          FAIR      54  38  54 W6        30.18F
RAWLINS        FAIR      47  37  68 E8        30.21S
SARATOGA       FAIR      45  36  70 N3        30.20F
LARAMIE        FAIR      46  36  68 SE20      30.20F
CHEYENNE       CLOUDY    39  39 100 S8        30.25F FOG     WCI  33
TORRINGTON     FAIR      51  41  68 SE8       30.24F
PINE BLUFFS    FAIR      46  39  76 S7        30.26F

$$




USA.gov is the U.S. government's official web portal to all federal, state and local government web resources and services.